Location: ??
(34.9170°N, 135.5016°E)
Time: 10:20:21
(UTC+00:00)

Explorer 7 - Pass Details

Date: 27 February 2021
Orbit: 484 x 677 km, 50.3° (Epoch: 14 April)

Event Time Altitude Azimuth Distance (km) Brightness Sun altitude
Rises 13:07:17 0° 309° (NW) 2,615 - -51.1°
Reaches altitude 10° 13:09:31 10° 308° (NW) 1,705 - -51.4°
Maximum altitude 13:13:21 78° 223° (SW) 502 - -52.1°
Drops below altitude 10° 13:17:04 10° 136° (SE) 1,655 - -52.7°
Sets 13:19:13 0° 135° (SE) 2,530 - -53.0°
